Flag for Austria Weather past 2 weeks in Zwettl, Lower Austria, Austria

Now
58 °F

Refreshingly cool.


Feels Like: 57 °F
Forecast: 42 / 61 °F
Wind: 6 mph from Northwest

Location: Retz

Current Time: Apr 21, 2015 at 11:30:15 PM

Latest Report: Apr 21, 2015 at 10:00 PM


Visibility: N/A

Pressure: 30.18 "Hg

Humidity: 38%

Dew point: 33 °F

Location of ZwettlLocation

Historic Weather in Zwettl — Graph

°F

Zwettl temperature yesterday

Maximum temperature yesterday: 62 °F (at 5:00 PM)
Minimum temperature yesterday: 41 °F (at 4:00 AM)
Average temperature yesterday: 52 °F

Past Weeks' High & Low Weather Summary

 TemperatureHumidityPressure
High76 °F (Apr 16, 2:00 PM)93% (Apr 17, 4:00 PM)30.53 "Hg (Apr 17, 4:00 PM)
Low33 °F (Apr 7, 4:00 AM)23% (Apr 21, 6:00 PM)29.81 "Hg (Apr 16, 5:00 PM)
Average52 °F58%30.20 "Hg
* Reported Apr 6 10:00 PM — Apr 21 10:00 PM, Zwettl, Weather by CustomWeather, © 2015

Note: Actual official high and low records may vary slightly from our data, if they occured in-between our weather recording intervals... More about our weather records

Advertising

Zwettl weather history for previous 24 hours

 ConditionsComfort  
Time TempWeatherWind HumidityBarometerVisibility
10:00 PM
Tue, Apr 21
58 °FRefreshingly cool.6 mph38%30.18 "HgN/A
9:00 PM61 °FRefreshingly cool.5 mph33%30.15 "HgN/A
8:00 PM63 °FMild.5 mph28%30.12 "HgN/A
7:00 PM66 °FMild.9 mph24%30.11 "HgN/A
6:00 PM67 °FMild.9 mph23%30.11 "HgN/A
5:00 PM68 °FMild.8 mph26%30.11 "HgN/A
4:00 PM67 °FMild.9 mph25%30.11 "HgN/A
3:00 PM65 °FMild.9 mph31%30.15 "HgN/A
2:00 PM63 °FMild.9 mph35%30.18 "HgN/A
1:00 PM60 °FRefreshingly cool.9 mph42%30.21 "HgN/A
12:00 PM55 °FCool.7 mph47%30.24 "HgN/A
11:00 AM54 °FCool.7 mph52%30.27 "HgN/A
10:00 AM52 °FCool.8 mph55%30.27 "HgN/A
9:00 AM49 °FCool.9 mph59%30.28 "HgN/A
8:00 AM46 °FCool.8 mph63%30.28 "HgN/A
7:00 AM45 °FCool.8 mph63%30.26 "HgN/A
6:00 AM46 °FCool.7 mph59%30.24 "HgN/A
5:00 AM46 °FCool.3 mph63%30.25 "HgN/A
4:00 AM47 °FCool.3 mph61%30.24 "HgN/A
3:00 AM47 °FCool.3 mph64%30.22 "HgN/A
2:00 AM49 °FCool.3 mph61%30.21 "HgN/A
1:00 AM50 °FCool.3 mph60%30.20 "HgN/A
12:00 AM52 °FCool.5 mph57%30.19 "HgN/A
11:00 PM
Mon, Apr 20
52 °FCool.6 mph58%30.17 "HgN/A
Weather by CustomWeather, © 2015

See weather overviewHow to use our weather pages